sat.trackr.live / text

‹ back to catalog

STARLINK-35981

NORAD 66598 · 2025-270L

PAYLOAD ACTIVE UNKNOWN

§ Identity

Operator
Country
US
Launch date
2025-11-22
Launch site
AFETR
Launch vehicle
Mass (kg)
RCS (m²)

Purposes: comms

External: N2YO · Heavens-Above · Gunter

§ Orbital elements

Epoch: 2026-05-24T22:54:42.380352Z

Period
94.27 min
Inclination
43.0043°
Eccentricity
0.0001689
Mean motion
15.27565093 rev/d
Perigee alt
481.9 km
Apogee alt
484.3 km
Semi-major
6,861.2 km
B*
7.5602e-4
RAAN
345.1306°
Arg perigee
269.7157°
Mean anomaly
90.3501°
Rev number
2,922

§ Raw data

STARLINK-359811 66598U 25270L   26144.95465718  .00020591  00000+0  75602-3 0  99912 66598  43.0043 345.1306 0001689 269.7157  90.3501 15.27565093 29229

JSON: /api/v1/satellites/66598 · /tle

For live sub-satellite position, see the globe view (requires WebGL).

§ Visibility from observer

Set your observer location to see the next 7 days of passes ≥ 10°. The values pass through the URL so the page stays shareable.

No JS? Fill the form by hand. The geolocation button needs JavaScript.